Lid_Strength_Index
1 1 1 1 0 -0 -1 -1 -1 -1 -0 -0 -0 -0 -1 -1 -0 5 6 4 3 -1 -0 5 5 5 4 5 5 6 8 9 9 10 9 9 9 9 9 9 9 8 9 9 8
1 1 1 0 0 0 0 -0 -0 -1 -0 -0 -0 -0 -0 0 4 6 2 0 -1 -1 5 5 6 5 5 6 6 6 8 9 8 8 8 8 8 8 9 9 9 9 9 10 9
1 1 1 1 1 0 0 0 -0 -0 -0 -0 -0 -0 0 1 5 5 1 -1 -1 0 5 5 5 5 6 6 7 8 9 8 8 8 8 8 9 8 8 9 7 7 7 10 10
1 1 1 1 1 1 0 0 0 -0 -0 0 -0 -0 0 3 9 5 -1 -0 0 3 5 6 6 7 7 8 7 9 9 8 8 8 9 9 8 9 8 6 7 6 7 9 10
2 2 2 1 1 1 0 0 0 0 0 0 -0 0 2 6 5 4 1 3 4 5 6 6 6 7 7 8 8 8 8 8 8 8 8 9 9 8 9 7 7 9 9 9 9
2 2 2 2 1 1 1 0 0 0 0 0 -0 0 4 8 4 4 5 6 6 5 6 6 6 6 8 8 8 8 8 8 8 8 9 9 8 10 7 7 8 9 9 9 9
2 2 2 2 1 1 1 0 0 0 0 0 -0 2 5 6 4 4 5 6 6 6 6 6 6 6 6 8 8 9 10 9 9 9 9 9 10 10 6 9 9 10 9 9 9
3 3 2 2 2 1 1 0 0 1 1 0 0 3 6 4 3 5 5 6 6 6 6 6 6 6 8 8 9 10 10 10 9 9 10 9 11 7 7 9 9 8 9 10 10
4 3 3 2 2 1 1 1 1 1 0 0 3 4 7 3 5 4 5 6 6 6 5 6 6 7 8 9 9 10 11 11 11 9 10 10 10 8 9 10 9 8 8 9 10
4 4 3 3 2 1 1 1 2 2 2 4 5 6 6 7 5 5 6 6 7 6 6 6 6 8 9 9 12 11 11 11 11 10 11 11 11 9 8 10 9 8 7 8 10
4 4 4 3 3 1 2 4 6 7 6 6 7 7 7 5 5 6 6 6 6 7 9 8 9 10 8 8 9 10 11 11 9 11 11 11 11 10 9 9 9 9 8 8 9
4 4 4 3 3 2 5 6 7 7 9 7 8 8 7 5 8 7 7 8 8 10 9 9 11 8 8 10 10 10 11 11 10 12 12 11 12 11 10 9 9 8 8 8 8
3 4 4 4 3 5 8 7 5 5 8 8 8 8 7 6 8 7 8 8 9 10 10 11 9 10 10 11 11 11 11 10 12 12 12 13 13 12 11 10 9 9 8 8 8
3 3 4 4 6 6 7 6 6 6 13 13 11 8 7 7 9 8 8 8 10 10 10 10 10 10 11 11 10 12 10 11 12 13 14 13 16 12 11 11 11 8 8 9 9
3 3 4 4 6 7 8 6 6 9 18 12 11 8 8 9 10 10 8 9 10 11 10 11 12 12 12 11 10 11 12 13 13 14 15 13 16 13 14 13 11 9 8 9 9
3 3 4 5 6 6 7 8 9 15 20 14 10 11 10 10 11 10 10 9 9 10 11 10 11 11 10 13 12 13 13 14 15 14 17 13 14 14 14 13 11 10 9 9 10
3 3 4 4 6 6 7 9 15 18 15 15 12 11 11 12 12 11 12 12 12 13 13 11 11 12 12 12 12 12 12 14 15 16 16 15 17 15 12 11 11 10 9 10 10
2 3 3 4 4 5 8 11 18 15 15 12 13 13 13 11 11 11 12 12 11 12 13 13 13 13 11 10 10 13 11 14 18 17 16 17 19 14 12 11 10 11 11 11 11
3 4 4 4 5 6 10 15 16 14 13 14 13 14 14 13 12 12 12 12 10 10 12 13 13 13 13 13 11 14 14 12 14 19 18 15 13 13 13 13 12 12 12 11 11
4 6 6 4 5 6 12 15 14 12 13 12 14 12 14 13 14 13 13 12 12 12 9 12 14 14 16 15 15 14 14 16 15 18 19 17 15 14 13 13 12 12 11 10 11
5 8 6 5 5 9 14 15 13 12 12 13 13 14 14 13 13 14 13 12 11 11 11 12 12 15 16 16 14 17 16 16 16 16 17 18 17 13 12 12 12 11 10 9 10
6 11 7 6 11 11 14 12 12 13 12 12 13 13 13 13 14 14 14 12 10 12 13 10 11 13 13 16 16 15 14 14 16 17 16 16 17 13 11 11 12 11 11 10 11
8 9 7 6 14 14 12 12 12 13 12 13 13 12 12 14 16 14 13 11 12 12 13 13 14 16 15 17 17 17 16 14 14 15 17 17 17 12 11 11 11 11 10 11 11
6 11 10 9 9 11 12 13 13 11 11 13 14 13 13 15 13 14 14 13 12 11 11 11 14 15 17 15 15 17 17 16 15 17 16 16 15 13 12 11 11 10 11 11 11
6 9 10 14 12 11 10 11 12 13 11 12 14 14 13 15 14 14 13 12 13 12 12 13 16 14 14 13 14 14 14 15 17 16 17 15 14 12 11 11 10 10 10 10 10
7 8 8 9 9 10 10 11 12 10 10 12 13 12 12 14 13 14 13 13 14 15 13 13 16 15 17 14 14 15 14 14 14 14 14 14 15 11 11 10 10 10 10 10 10
5 5 7 9 10 11 11 11 11 9 9 9 10 11 12 12 10 10 10 10 11 12 14 15 15 16 18 14 15 18 15 14 14 12 13 15 12 10 11 10 10 10 10 10 10